Weather in Maykop

Russia / Republic of Adygea     44°36′31″N   40°05′54″E
temp.,
°C
wind,
m/s
gust,
m/s
humid.,
%
clouds,
%
prec.,
mm/h
press.,
hPa
HPBL,
m
28 february, sun
sun2800:00+3sw258668 0.0 1017102
03:00+2ese119184 0.1 101629
06:00+2wsw1592100 0.7 1016162
09:00+3wnw4893100 2.2 1016512
12:00+2nw2597100 2.4 1017367
15:00+1sw1398100 6.4 1017155
18:00+2ssw2298100 1.4 1018129
21:00+2nw2498100 2.6 1020315
1 march, mon
mon100:00+1wnw2598100 0.8 1021297
03:00+1w2497100 1.1 1022281
06:00−1sw129786 0.1 1024112
09:00+2wsw138255 0.1 1025346
12:00+5wnw246942 0.0 10251078
15:00+5nw347267 0.2 1025926
18:00+2n1283100 0.1 102674
21:00+1ese019199 0.1 102822
2 march, tue
tue200:000ssw119393 0.0 102830
03:000ssw119280 0.0 102928
06:00−1s119163 0.0 102947
09:00+2sw118062 0.0 1029297
12:00+5w366632 0.0 10281134
15:00+6w696155 0.1 10271473
18:00+3w5117219 0.0 1026635
21:00+1w4118412 0.0 1026565
3 march, wed
wed300:00+2w5138166 0.0 1025850
03:00+2wsw7148266 0.0 10241051
06:00+2wsw815770 0.0 10221054
09:00+4wsw9176430 0.0 10221491
12:00+6wsw9156377 0.0 10211595
15:00+4w7147885 1.2 10211117
18:00+1wnw2598100 6.3 1023275
21:00+1nw2598100 9.8 1025350
4 march, thu
thu400:00+1wnw1198100 1.4 1026137
03:000w0196100 1.6 1026124
06:00−1ssw119577 0.0 1027160
09:00+1sw118577 0.0 1027334
12:00+5wnw137136 0.0 1026754
15:00+5w237261 0.0 1025850
18:00+4ene018297 0.0 102470
21:00+3se018797 0.0 102526